Location: B�rgermoos
(47.6500°N, 9.0667°E)
Time: 02:04:16
(UTC+00:00)

Courier 1B - Pass Details

Date: 04 August 2021
Orbit: 963 x 1209 km, 28.3° (Epoch: 19 September)

Event Time Altitude Azimuth Distance (km) Brightness Sun altitude
Rises 19:46:39 0° 242° (WSW) 4,107 11.1 -8.4°
Reaches altitude 10° 19:50:47 10° 223° (SW) 3,135 10.2 -8.9°
Maximum altitude 19:55:14 16° 188° (S) 2,664 9.5 -9.5°
Drops below altitude 10° 19:59:37 10° 153° (SSE) 3,080 9.5 -10.1°
Enters shadow 19:59:50 10° 152° (SSE) 3,121 9.6 -10.1°
